Palm Springs, CA

12:33 PM PDT on June 25, 2017 (GMT -0700)
Palm Springs International

Weather History for KPSP - October, 2012

Change the Weather History Date:

Friday, October 12, 2012

  Actual Average Record
Temperature  
Mean Temperature 67 °F 77 °F  
Max Temperature 79 °F 90 °F 109 °F (1950)
Min Temperature 55 °F 64 °F 44 °F (1930)
Degree Days  
Heating Degree Days 0 0  
Month to date heating degree days 0 0  
Since 1 July heating degree days 0 0  
Cooling Degree Days 2 12  
Month to date cooling degree days 198 167  
Year to date cooling degree days 4385 3893  
Growing Degree Days 17 (Base 50)    
Moisture  
Dew Point 44 °F    
Average Humidity 47    
Maximum Humidity 67    
Minimum Humidity 27    
Precipitation  
Precipitation 0.00 in 0.01 in 0.35 in (1987)
Month to date precipitation 0.00 0.12  
Year to date precipitation 1.82 4.01  
Since 1 July precipitation 1.03  
Snow  
Snow 0.00 in - - ()
Month to date snowfall 0.0  
Year to date snowfall 0.0  
Snow Depth 0.00 in    
Sea Level Pressure  
Sea Level Pressure 30.00 in    
Wind  
Wind Speed 5 mph (NW)    
Max Wind Speed 21 mph    
Max Gust Speed 26 mph    
Visibility 10 miles    
Events      
T = Trace of Precipitation, MM = Missing Value Source: NWS Daily Summary

Daily Weather History Graph

Daily Weather History Graph

Search for Another Location

Airport or City:

Trip Planner

Search our weather history database for the weather conditions in past years. The results will help you decide how hot, cold, wet, or windy it might be!

Date:

Astronomy

Oct. 12, 2012 Rise Set
Actual Time 6:49 AM PDT 6:15 PM PDT
Civil Twilight 6:24 AM PDT 6:40 PM PDT
Nautical Twilight 5:55 AM PDT 7:09 PM PDT
Astronomical Twilight 5:26 AM PDT 7:37 PM PDT
Moon 3:44 AM PDT (10/12) 4:21 PM PDT (10/12)
Length of Visible Light 12h 16m
Length of Day
11h 26m
Waning Crescent, 10% of the Moon is Illuminated
Oct 12
Waning Crescent
Oct 15
New
Oct 21
First Quarter
Oct 29
Full
Nov 6
Last Quarter

Hourly Weather History & Observations

Time (PDT) Temp. Dew Point Humidity Pressure Visibility Wind Dir Wind Speed Gust Speed Precip Events Conditions
1:53 AM 60.1 °F 45.0 °F 57% 29.89 in 10.0 mi SSE 4.6 mph - N/A   Clear
2:53 AM 60.1 °F 45.0 °F 57% 29.90 in 10.0 mi NE 3.5 mph - N/A   Clear
3:53 AM 59.0 °F 45.0 °F 60% 29.91 in 10.0 mi Calm Calm - N/A   Clear
4:53 AM 57.9 °F 46.0 °F 65% 29.94 in 10.0 mi Calm Calm - N/A   Clear
5:53 AM 57.9 °F 45.0 °F 62% 29.96 in 10.0 mi North 3.5 mph - N/A   Clear
7:53 AM 62.1 °F 45.0 °F 53% 30.00 in 10.0 mi Calm Calm - N/A   Scattered Clouds
8:53 AM 64.0 °F 46.0 °F 52% 30.02 in 10.0 mi SSE 3.5 mph - N/A   Scattered Clouds
9:53 AM 69.1 °F 42.1 °F 38% 30.03 in 10.0 mi Calm Calm - N/A   Partly Cloudy
10:53 AM 71.1 °F 41.0 °F 34% 30.03 in 10.0 mi South 6.9 mph - N/A   Partly Cloudy
12:53 PM 75.9 °F 39.9 °F 27% 30.03 in 10.0 mi East 8.1 mph - N/A   Scattered Clouds
1:53 PM 77.0 °F 41.0 °F 28% 30.01 in 10.0 mi WNW 6.9 mph - N/A   Scattered Clouds
3:53 PM 77.0 °F 41.0 °F 28% 30.00 in 10.0 mi NNW 13.8 mph 26.5 mph N/A   Clear
4:53 PM 75.9 °F 42.1 °F 30% 30.01 in 10.0 mi NW 15.0 mph 24.2 mph N/A   Scattered Clouds
5:53 PM 73.0 °F 44.1 °F 35% 30.02 in 10.0 mi NNW 20.7 mph 25.3 mph N/A   Clear
6:53 PM 72.0 °F 45.0 °F 38% 30.03 in 10.0 mi NW 13.8 mph 20.7 mph N/A   Clear
7:53 PM 71.1 °F 45.0 °F 39% 30.04 in 10.0 mi NW 13.8 mph - N/A   Clear
8:53 PM 70.0 °F 46.0 °F 42% 30.05 in 10.0 mi NW 11.5 mph - N/A   Clear
9:53 PM 69.1 °F 46.0 °F 44% 30.06 in 10.0 mi West 4.6 mph - N/A   Clear
10:53 PM 68.0 °F 48.0 °F 49% 30.08 in 10.0 mi NW 12.7 mph - N/A   Clear
11:53 PM 66.9 °F 48.9 °F 52% 30.08 in 10.0 mi West 5.8 mph - N/A   Clear